GFSFLT2_prec_radar_207.txt.gz
Reflectivity
-20 -20 -20 -20 -20 -20 -20 -20 -20 -20 -20 -20 -20 -20 -20 -20 -20 -20 -20 -20 -20 -20 -20 -20 -20 -20 -20 -20 -20 -20 -20 -20
-20 -20 -20 -20 -20 -20 -20 -20 -20 -20 -20 -20 -20 -20 -20 -20 -20 -20 -20 -20 -20 -20 -20 -20 -20 -20 -20 -20 -20 -20 -20 -20
-20 -20 -20 -20 -20 -20 -20 -20 -20 -20 -20 -20 -17 -20 -20 -20 -20 -20 -20 -20 -20 -20 -20 -20 -20 -20 -20 -20 -20 -20 -20 -20
-20 -20 -20 -20 -20 -20 -20 -7 -20 -20 -20 -20 -20 -20 -20 -7 -2 -20 -20 -20 -20 -20 -20 -20 -20 -20 -20 -20 -20 -20 -20 -20
-20 -20 -20 -20 -1 -20 -20 -20 -20 -20 -20 -20 -20 -20 -20 -18 -1 -20 -20 -20 -20 -20 -20 -20 -20 -20 -20 -20 -20 -20 -20 -20
-20 -20 -9 12 -0 -20 -9 -20 -20 -20 -14 -15 -20 -20 -20 -20 -6 -20 -20 -20 -20 -20 -20 -20 -20 -20 -20 -20 -20 -20 -20 -20
-20 -20 -20 11 11 2 7 3 1 -20 -20 -20 -20 -20 -20 -20 -20 -20 -20 -20 -20 -20 -20 -20 -20 -20 -20 -20 -20 -20 -19 4
-20 -20 -20 -20 10 -7 -0 2 -4 1 -16 -20 -20 -20 -20 -20 -20 -20 -20 -20 -20 -20 -20 -20 -20 -20 -20 -20 -20 -20 -20 -20
-20 -20 -20 -20 -20 1 9 -2 3 7 -7 -16 -15 -20 -20 -20 -20 -20 -20 -20 -20 -20 -20 -20 -20 -20 -20 -20 -20 -20 -20 -20
-20 -20 -20 -16 33 29 20 13 -10 33 29 35 2 -19 -20 6 2 -11 -14 -20 -4 -20 -20 -19 7 -20 -20 -20 -20 -20 -20 -20
-20 -20 -20 -11 -0 -12 16 17 -7 6 21 21 -7 -12 1 27 17 -19 -3 -20 -20 -20 -20 -6 -20 -15 -20 -20 -20 -20 -20 -20
-20 -20 -20 -18 -10 -18 14 3 4 33 17 13 26 -9 -9 7 20 10 -11 -20 -20 -20 -20 -20 -20 -20 -20 -20 -20 -20 -20 -20
-20 -20 -20 -20 -20 -10 14 18 6 32 2 33 -1 -15 -20 -10 18 18 -4 10 -3 -20 -9 9 -20 -20 -20 -20 -20 -20 -20 -20
-20 -19 10 -18 23 -8 -20 18 33 29 32 25 33 30 8 5 6 -20 -20 3 -20 9 -20 -20 -20 -20 -20 -20 -20 -20 -20 -20
30 -9 31 -14 -20 4 -15 23 21 31 17 5 22 31 13 10 -8 -12 15 23 -18 -12 -20 -20 -20 -20 -20 -20 -20 -20 -20 -20
-20 -15 30 -18 1 20 -5 12 20 11 29 23 7 29 30 15 0 -10 13 -17 -20 -20 -20 -20 -20 -20 -20 -20 -20 -20 -20 -20
-20 -20 -20 -20 3 -8 3 -7 -19 27 -18 26 24 19 33 29 10 28 -3 -6 4 -7 -20 -20 -20 -20 -20 -20 -20 -20 -20 -20
-20 -20 -20 -20 -7 18 12 6 -12 -20 -20 -20 20 23 23 14 24 22 -16 18 -20 12 -20 10 -20 -20 -20 -20 -20 -20 -20 -20
-20 -20 -20 -20 -20 -20 7 18 13 -7 -20 -2 -15 -20 -8 16 28 19 22 20 5 -11 2 -7 -15 -20 -20 -20 -20 -20 -20 -20
4 9 4 -10 -20 -19 -18 -19 -2 6 10 -17 1 -13 -20 -20 -20 -18 26 21 20 20 16 -20 -20 -20 -20 -20 -20 -20 -20 -20

GFSFLT2_prec_radar_213.txt.gz
Reflectivity
-20 -20 -20 -20 -20 -14 5 -20 -20 -20 -20 -20 -20 -20 -20 -20 -20 -20 -20 -20 -20 -20 -20 -20 -20 -20 -20 -20 -20 -20 -20 -20
-20 -20 -20 -20 -19 10 8 -20 -20 -20 -20 -20 -20 -20 -20 -20 -20 -20 -20 -20 -20 -20 -20 -20 -20 -20 -20 -20 -20 -20 -20 -20
-20 -20 -20 -10 -7 -3 5 -20 -20 -20 -20 -20 -20 -20 -20 -20 -20 -20 -20 -20 -20 -20 -20 -20 -20 -20 -20 -20 -20 -20 -20 -20
-20 -20 -20 -20 3 15 -3 -2 -20 -20 -13 -20 -20 -20 -20 -20 -17 -20 -20 -20 -20 -20 -20 -20 -20 -20 -20 -20 -20 -20 -20 -20
-20 -20 -20 -20 9 -15 5 6 2 8 7 -4 -20 -13 -20 -20 -2 -12 -20 -20 -20 -20 -20 -20 -20 -20 -20 -20 -20 -20 -20 -20
-20 -20 -20 -20 -20 -11 1 9 6 6 -20 -20 16 4 -19 24 25 16 -6 -20 -20 -20 -20 -20 -20 -20 -20 -20 -20 -20 -20 -20
-20 -20 -20 -20 -20 -14 11 5 -9 -12 1 16 -17 -20 13 -20 15 27 25 -7 -20 -20 -20 -20 -20 -20 -20 -20 -20 -20 -20 -20
-20 -20 -20 -20 -20 -20 -18 -1 -20 -20 1 4 3 -16 -0 -6 -19 12 25 21 -17 -20 -20 -20 -20 -20 -20 -20 -20 -20 -20 -20
-20 -20 -20 -20 -20 -20 -20 -4 -6 -9 27 4 7 4 -11 -15 -18 15 28 10 21 -20 -20 -20 -20 -20 -20 -20 -20 -20 -20 -20
-20 -20 -20 -20 -20 -20 -20 15 -6 -12 10 29 34 30 17 -2 -17 32 29 30 19 -9 -20 -20 -20 -20 -20 -20 -20 -20 -20 -20
-20 -20 -20 -20 -20 -20 -14 -18 -3 -16 10 2 34 47 30 29 31 33 28 28 4 13 3 -16 -20 -20 -20 -20 -20 -20 -20 -20
-20 -20 -20 -20 -5 1 7 14 -17 -19 -19 -15 -5 16 28 24 47 34 30 33 30 22 26 19 3 -18 -20 -20 -20 -20 -20 -20
-20 -20 -20 2 19 -3 34 32 31 17 -18 -7 11 -20 -20 20 13 45 43 45 27 19 27 25 11 -20 -20 -20 -20 -10 -20 -16
-20 7 20 26 24 22 31 21 29 14 -4 -19 -7 -18 -20 -20 22 32 44 31 31 23 9 2 13 4 -17 -2 -4 6 -12 -20
-20 10 18 18 25 32 20 28 19 17 20 6 -3 15 14 20 19 15 46 21 29 22 25 23 -16 -14 -9 -20 -20 -20 -20 -20
-20 -20 -20 12 24 24 26 19 24 10 19 -20 -19 22 9 22 21 27 29 37 43 38 23 20 23 -12 -20 -20 -20 -20 1 -13
-20 -20 -20 -1 6 -0 -20 10 9 15 10 -15 -6 3 31 17 34 21 44 28 44 40 38 37 14 5 4 -14 -20 -20 -20 -20
-20 -2 11 15 0 -4 -16 -5 16 -20 4 -11 23 16 1 36 14 13 26 21 33 37 41 34 18 11 11 -20 -20 -20 -20 -20
-20 -20 -20 -18 0 -3 -15 -16 -13 -14 -19 -20 28 5 -19 -13 4 13 23 15 14 17 39 42 34 14 16 -1 16 -6 -18 -20
12 -4 2 6 -20 14 -3 -2 2 -20 -20 13 5 4 -13 36 17 -20 -6 24 17 12 29 36 45 26 40 11 17 -20 -20 -20

GFSFLT2_prec_radar_216.txt.gz
Reflectivity
-20 -20 -7 8 -12 -20 -20 -20 -20 -20 -20 -20 -20 -20 -20 -20 -20 -20 -20 -20 -20 -20 -20 -20 -20 -20 -20 -20 -20 -20 -20 -20
-20 -20 -20 -20 -19 4 11 -20 -20 -20 -20 -20 -20 -20 -20 -20 -20 -20 -18 -20 -20 -20 -20 -20 -20 -20 -20 -20 -20 -20 -20 -20
-20 -20 -20 -20 -0 -2 7 -20 -20 -20 -20 -20 -20 -20 -20 -20 18 -7 -20 -20 -20 -20 -20 -20 7 -20 -20 -20 -20 -20 -20 -20
-20 -20 -20 10 4 12 -20 -9 -20 -20 -20 -20 -20 -20 -20 9 22 -20 -20 -20 -20 -20 -20 2 9 -20 -20 -20 -20 -20 -20 -20
-20 -20 -20 -20 -17 12 17 21 -2 -7 0 -4 -20 15 -20 24 22 -20 -7 -18 -20 -20 -19 -18 -20 -20 -20 -20 -20 -20 -20 -20
-20 -20 -20 -20 -10 8 -0 0 3 2 -10 -5 -12 22 -15 22 25 11 -1 7 -18 -20 -20 -20 -12 -13 -20 -20 -20 -20 -20 -20
-20 -20 -20 -20 -20 6 2 8 13 -15 0 -17 -18 -11 3 7 -19 11 22 22 28 -12 -16 7 -20 -20 -20 -20 -20 -20 -20 -20
-20 -20 -20 -20 -20 -19 6 -5 4 7 5 1 5 -4 -19 1 14 20 -9 28 29 18 -13 10 -20 -20 -20 -20 -20 -20 -20 -20
-20 -20 -3 -1 -20 -20 -1 -9 -19 14 -20 -20 -15 -2 26 -5 33 30 26 24 25 21 -18 -20 -14 -9 -20 -20 -20 -20 -20 -20
-20 -20 -20 4 -13 -20 2 -20 -20 23 -1 -2 -1 8 13 32 34 38 32 26 23 26 6 -6 7 2 -18 -20 -20 -20 -20 -20
-20 -20 -20 -20 18 22 18 16 -8 18 11 24 2 -14 7 32 24 36 40 39 29 32 20 12 22 21 7 -17 -20 -20 -20 -20
-20 -20 -20 -0 2 12 8 -6 22 -17 0 9 8 32 15 31 2 -12 28 41 24 33 46 40 26 21 9 -5 -18 -19 -20 -20
-20 -14 5 23 22 22 10 8 7 31 9 -3 -9 -15 24 26 28 -20 19 25 0 21 43 46 42 29 27 17 19 -7 -20 -20
-20 -14 1 16 27 17 21 16 19 25 17 20 15 5 3 -4 27 1 10 4 -20 1 10 32 48 40 35 27 24 24 23 -14
-20 -20 -7 3 17 25 25 29 31 17 10 22 10 1 28 21 17 11 6 1 1 25 27 23 37 36 40 36 31 10 12 18
-20 -20 -20 11 13 22 24 13 15 18 -19 -16 -3 16 18 -13 -4 8 -7 -4 30 27 27 15 29 40 43 36 30 21 23 5
-20 -20 -20 -20 4 6 16 22 15 -5 -2 -20 -13 22 -4 26 0 15 3 28 34 34 41 35 25 37 39 38 32 26 26 -18
-20 -20 -20 -20 -20 -20 -18 -8 21 1 14 15 1 -20 -14 16 15 -6 10 11 27 34 28 17 22 35 38 40 38 34 25 20
-20 -20 -20 -20 -13 -14 -7 -14 -12 0 11 1 -19 -20 -15 -3 22 4 10 18 4 36 16 4 9 25 23 38 38 33 27 23
-20 -20 -18 -10 -20 -15 -7 18 16 15 13 22 20 2 3 9 6 13 -20 -20 -20 19 6 1 8 11 29 31 34 31 43 29

GFSFLT2_prec_radar_219.txt.gz
Reflectivity
-20 -19 -2 10 -10 -20 -20 -20 -20 -20 -20 -20 -20 -20 -4 0 -20 -20 -20 -20 -20 -20 -20 -20 -20 10 -20 -20 -20 -20 -20 2
-20 -20 -20 -20 -19 -20 -20 -20 -20 -20 -20 -20 -20 -20 -20 -20 -20 -20 -19 -9 -16 -20 -20 -19 8 -13 -20 -20 -20 -20 -20 -9
-20 -20 -20 -20 -20 -10 -16 -20 -20 -20 -20 -20 -19 1 4 8 -11 -20 23 6 -7 -9 -20 -18 13 -20 -20 -20 -20 -20 -20 -20
-20 -20 -20 -20 1 1 -6 -19 -3 -15 1 5 5 4 5 5 6 14 25 21 -2 -12 -6 -20 5 -20 -20 -20 -20 -20 -20 -20
-20 -20 -20 -20 -18 -2 -20 -16 -20 -3 3 5 9 6 -3 9 -1 -3 18 -17 -6 -11 2 6 -7 -20 -20 -20 -20 -20 -20 -20
-20 -20 -20 -20 -20 -20 -20 -20 -20 -20 -3 12 -8 -19 7 -5 12 4 13 -8 -19 -8 -12 1 -8 -20 -20 -20 -20 -20 -20 -20
-20 -20 -20 -20 -20 -20 -16 -15 10 -20 -20 -5 1 -14 -17 6 20 10 6 24 23 20 14 -15 10 -20 -20 -20 -20 -20 -20 -20
-20 -20 -20 -20 -20 -17 8 3 10 -6 8 12 -16 -2 21 14 -20 17 -5 -20 22 25 24 19 7 -8 -20 -20 -20 -20 -20 -20
-20 -20 -20 -20 -20 -20 -20 -20 10 9 16 8 -5 -6 12 26 28 -13 31 -9 31 23 27 31 26 23 -20 -20 -20 -4 -20 -20
-20 -20 -20 -16 -20 -20 -19 -20 1 6 4 -10 6 3 2 4 -7 9 -0 32 47 29 42 25 35 35 18 2 -19 18 -20 -20
-20 -15 6 -7 -20 -19 4 15 11 9 28 -19 13 1 -6 -4 -11 20 32 40 33 14 8 37 33 36 40 30 9 24 -20 -20
-20 8 14 11 8 15 16 14 8 27 2 28 -9 -10 8 17 30 29 22 15 -20 2 -20 22 43 36 25 41 35 30 6 -20
-20 -16 -14 6 16 19 25 19 24 18 18 29 28 30 26 15 27 7 2 -10 20 22 18 -5 25 27 20 27 44 29 32 11
-20 -20 -20 3 18 23 25 23 21 28 19 16 22 9 13 14 14 -3 -11 -9 -18 20 -20 -15 22 1 2 31 35 40 35 29
-20 -20 -12 -20 -10 13 19 21 24 24 25 16 27 9 18 30 10 -15 -18 -20 -11 -20 -17 -11 23 16 8 26 30 37 40 33
-20 -20 -20 -20 -20 -18 -3 3 -1 21 16 20 26 24 27 30 30 9 3 -2 -12 9 -1 21 23 21 32 28 34 25 35 36
-20 -20 -20 -20 -20 -3 6 12 7 14 19 22 20 7 21 23 8 25 15 -20 -15 -19 9 12 11 26 40 26 30 34 36 41
-20 -20 -20 -20 -20 -20 -18 -20 -14 16 15 14 10 7 26 18 19 24 17 -16 -6 9 4 26 2 23 33 31 22 36 38 36
-20 -20 -20 -20 -20 -20 -20 -20 -20 -20 -7 -1 13 4 27 21 7 -1 17 19 -6 -3 21 -14 -16 24 6 8 8 31 33 37
-20 -20 -20 -20 -20 -20 -20 -20 -13 -20 -20 6 -5 -20 -19 15 23 27 19 -13 2 11 28 -0 16 -15 -20 3 3 19 22 36

GFSFLT2_prec_radar_225.txt.gz
Reflectivity
-20 -20 -20 -20 -20 -20 -20 -20 -20 -20 -20 -20 -20 -20 -20 -20 -20 -20 -20 -20 -20 -20 -20 -20 -20 -20 -20 -20 -4 -20 -20 -20
-20 -20 -20 -20 -20 -20 -20 -20 -20 -20 -20 -20 -20 -20 -20 -20 -20 -20 -20 -20 -20 -20 -20 -20 -20 -20 -20 -20 -20 -20 -20 -20
-20 -20 -20 -20 -20 -20 -20 -20 -20 -20 -16 -19 -15 -20 -20 -20 -20 -20 -20 -20 -20 -20 -20 -20 -20 -20 -20 -20 -20 -20 -20 -20
-20 -20 -20 -20 -20 -20 -20 -20 -20 -20 -20 -14 -6 -20 -20 -20 -20 -20 -20 -20 -20 -20 -20 -20 -20 -9 -9 -19 -20 -20 -20 -20
-20 -20 -20 -20 -20 -20 -6 -20 -20 -20 -20 -20 1 -9 -20 -0 -13 -13 -1 -20 -20 -17 -16 -20 -20 -20 -20 -1 -20 -20 -20 -20
-20 -20 -20 -20 -20 -20 -20 -10 -7 -20 -20 -20 -13 4 6 23 -18 8 6 2 -20 -20 -20 -16 -20 -11 -9 -6 -19 -18 -20 -20
-20 -20 -20 -20 2 -19 -13 -14 -9 -10 -20 -7 2 7 -8 15 30 11 -1 3 -19 -1 -16 -20 -16 1 9 10 10 -15 -13 -20
-20 -20 -20 -20 -20 10 3 13 8 9 6 1 12 11 23 -20 -3 4 -20 5 -1 -6 14 12 -14 13 13 12 14 9 -20 -20
-20 -20 -20 -20 -18 4 -7 -9 10 3 12 12 4 15 14 7 16 7 -11 27 -20 8 2 5 -0 -10 11 5 20 12 12 4
-20 -20 -20 -20 -20 16 14 9 17 18 14 19 -5 -1 2 9 7 -11 -20 -20 -9 22 18 16 16 11 18 37 26 20 0 1
-20 -20 -20 -20 -20 -20 -6 -3 9 17 23 9 27 24 15 -16 2 -19 -18 -20 1 7 -2 27 -8 21 42 31 19 14 5 6
-20 -20 -20 -20 -20 -14 -9 15 7 10 -18 -8 7 16 33 12 26 13 14 23 20 16 13 25 -3 2 20 3 -16 3 14 4
-20 -20 -20 -20 -20 -20 -20 -20 -20 -13 3 17 23 17 20 30 34 29 5 0 -4 5 22 26 -10 19 -11 20 -14 -12 -9 18
-20 -20 -20 -20 -20 -20 -20 -20 -20 -20 -5 15 19 24 22 -1 33 25 5 24 19 15 20 24 26 -16 -3 -8 17 30 24 31
-20 -20 -20 -20 -20 -20 -20 -20 -20 -20 -20 -16 -10 15 25 6 27 21 24 22 26 20 27 26 15 11 19 21 8 21 9 7
-20 -20 -20 -20 -20 -20 -20 -20 -20 -20 -20 -20 -20 2 -13 28 27 30 32 24 37 28 29 25 0 8 -4 -17 -4 -17 -3 -1
-20 -20 -20 -20 -20 -20 -20 -20 -20 -20 -20 -20 -20 -20 -3 -20 27 26 -20 15 34 44 39 23 44 31 35 25 20 3 1 1
-20 -20 -20 -20 -20 -20 -20 -20 -20 -20 -20 -20 -20 -20 -20 -20 -20 -20 -10 29 37 8 11 26 41 46 42 43 32 17 10 0
-20 -20 -20 -20 -20 -20 -20 -20 -20 -20 -20 -20 -20 -20 -20 -20 -20 -20 -8 15 11 -10 13 35 32 28 29 34 38 29 22 15
-20 -20 -20 -20 -20 -20 -20 -20 -20 -20 -20 -20 -15 -20 -20 -20 -20 -14 -4 -20 -3 13 19 34 26 29 28 32 40 43 33 29